Location: *
(42.0175°N, 9.4056°E)
Time: 20:05:13
(UTC+00:00)

Cosmos 1680 Rocket - Pass Details

Date: 25 August 2019
Orbit: 760 x 780 km, 74.1° (Epoch: 22 September)

Event Time Altitude Azimuth Distance (km) Brightness Sun altitude
Rises 19:38:16 0° 335° (NNW) 3,242 7.7 -16.2°
Reaches altitude 10° 19:40:42 10° 331° (NNW) 2,309 6.9 -16.6°
Maximum altitude 19:45:47 54° 256° (WSW) 919 4.1 -17.4°
Enters shadow 19:50:21 13° 180° (S) 2,107 5.5 -18.1°
